Location: Unspecified
(0.0000°N, 0.0000°E)
Time: 11:09:16
(UTC+00:00)

ATLAS 5 CENTAUR DEB - Visible Passes

Search period start: 17 February 2026 00:00
Search period end: 27 February 2026 00:00
Orbit: 8279 x 34957 km, 19.8° (Epoch: 15 February)

Date Brightness Start Highest point End Pass type
(mag) Time Alt. Az. Time Alt. Az. Time Alt. Az.
17 Feb ? 13:44:10 10° WNW 23:13:40 67° E 01:52:11 10° ENE visible
18 Feb ? 16:01:57 10° W 02:23:21 79° NW 04:11:42 10° ENE visible
19 Feb ? 18:28:11 10° W 22:04:40 53° SW 06:29:31 10° ENE daylight
20 Feb ? 21:25:01 10° WSW 23:45:04 24° WSW 08:54:26 10° E visible
22 Feb ? 17:45:05 10° ESE 19:27:01 14° E 20:36:46 10° E visible
23 Feb ? 11:56:39 10° WNW 21:29:49 46° E 23:57:21 10° ENE visible
24 Feb ? 14:13:36 10° WNW 00:17:49 79° ENE 02:23:26 10° ENE visible
25 Feb ? 16:33:34 10° W 21:47:11 68° SW 04:41:19 10° ENE visible
